Regional Weather Roundup
Issued by NWS

Home | Current Version | Previous Version | Text Only | Print | Product List | Glossary Off
Versions: 1 2 3 4 5 6 7 8 9 10 11 12 13 14 15 16 17 18 19 20 21 22 23 24 25 26 27 28 29 30 31 32 33 34 35 36 37 38 39 40 41 42 43 44 45 46 47 48 49 50

886
ASUS44 KLIX 230205
RWRLA
LOUISIANA WEATHER ROUNDUP
NATIONAL WEATHER SERVICE NEW ORLEANS LA
900 PM CDT TUE JUL 22 2014

NOTE: "FAIR" INDICATES FEW OR NO CLOUDS BELOW 12,000 FEET WITH NO
      SIGNIFICANT WEATHER AND/OR OBSTRUCTIONS TO VISIBILITY.
      SKY/WX - SKY CONDITION AND SIGNIFICANT WEATHER.
      TMP - AIR TEMPERATURE.    DP   - DEWPOINT TEMPERATURE.
      RH  - RELATIVE HUMIDITY.  PRES - PRESSURE.
      HX  - HEAT INDEX.         WCI  - WIND CHILL INDEX.

*  THESE STATIONS ARE NOT NWS OR FAA STATIONS AND ARE NOT UNDER
   NWS QUALITY CONTROL.

LAZ040-048-061>063-065-066-069-230300-
SOUTHEAST LOUISIANA

CITY           SKY/WX    TMP DP  RH WIND       PRES   REMARKS
N.O. AUDUBON     N/A     81  72  74 MISG        N/A
N.O. INTL ARPT MOCLDY    80  74  81 E3        30.01R
N.O. LAKEFRONT FAIR      81  73  76 E13       30.02R
N.O. DOWNTOWN* FAIR      81  70  69 NE8       30.01R
SLIDELL        FAIR      76  68  76 CALM      30.02R
BATON ROUGE    FAIR      75  71  87 CALM      30.02R
BOOTHVILLE     FAIR      78  74  87 SE5       30.03R
BELLE CHASSE   MOCLDY    81  72  74 E6        30.00R
BOGALUSA*      FAIR      74  70  88 CALM      30.05S
GALLIANO*      NOT AVBL
NEW ROADS*     FAIR      74  72  91 NW5       30.03R
GONZALES*      FAIR      81  74  81 N5        30.00R
HAMMOND*       FAIR      77  70  78 NE5       30.04S
HOUMA*         FAIR      76  72  86 E3        30.00R
PORT FOURCHON* CLEAR     82  75  78 SE3       30.02R

$$

LAZ041-044-053-054-230300-
SOUTHWEST LOUISIANA

CITY           SKY/WX    TMP DP  RH WIND       PRES   REMARKS
LAKE CHARLES   FAIR      78  75  90 CALM      30.00R
LAFAYETTE      MOCLDY    83  74  74 NE6       30.01R
PATTERSON      FAIR      79  75  89 CALM      30.04R
SALT POINT       N/A     84  77  79 CALM      29.99R
NEW IBERIA     FAIR      84  73  69 NE9       30.01R
CHENAULT AIRPK CLEAR     82  73  74 CALM      30.02R

$$

LAZ027-028-230300-
CENTRAL LOUISIANA

CITY           SKY/WX    TMP DP  RH WIND       PRES   REMARKS
FORT POLK      FAIR      81  71  71 N5        30.03R
ALEXANDRIA INT FAIR      81  70  69 E8        30.01R
ALEXANDRIA     FAIR      79  75  87 CALM      30.03R

$$

LAZ001-002-230300-
NORTHWEST LOUISIANA

CITY           SKY/WX    TMP DP  RH WIND       PRES   REMARKS
SHREVEPORT     FAIR      79  70  74 CALM      30.03R
BARKSDALE AFB  FAIR      79  71  75 E3        30.04R
DTN SHREVEPORT FAIR      78  70  76 CALM      30.04R

$$

LAZ014-016-230300-
NORTHEAST LOUISIANA

CITY           SKY/WX    TMP DP  RH WIND       PRES   REMARKS
MONROE         FAIR      79  72  79 CALM      30.05R
TALLULAH       FAIR      76  72  87 SE5       30.05R

$$




USA.gov is the U.S. government's official web portal to all federal, state and local government web resources and services.